Theta_e
295 296 296 297 300 304 308 306 303 298 297 296 296 295 294 293 293 291 290 288 287 286 288 288 287 287 285 284 283 283 282 282 279 278 279 279 279 279 280 279 280 279 279
295 296 296 296 298 302 307 304 299 296 295 295 294 294 292 291 290 289 287 287 286 287 288 288 286 285 283 283 283 281 281 279 278 277 277 278 278 278 278 278 280 281 280
298 297 297 297 298 305 300 296 295 293 293 293 292 291 290 289 289 288 287 288 288 289 288 287 284 283 282 282 280 280 278 280 278 277 276 277 277 277 277 277 278 278 279
297 297 297 298 301 296 294 293 292 291 290 290 290 289 288 287 287 287 288 289 290 289 287 285 284 283 282 280 280 279 279 278 277 277 276 276 276 277 277 276 276 277 276
299 298 297 295 293 292 290 290 289 289 288 289 287 287 287 288 288 288 289 288 286 284 284 284 283 282 284 282 280 279 278 277 277 276 276 276 276 277 276 276 275 275 274
295 293 292 291 290 289 289 287 287 286 285 285 285 287 287 288 291 290 289 286 285 284 283 282 282 282 284 286 285 284 281 277 277 276 275 276 277 277 276 274 272 270 269
292 291 291 289 288 288 287 286 286 285 285 285 285 287 287 289 291 289 287 285 284 283 282 281 280 281 281 281 285 285 284 285 282 278 277 277 275 276 274 272 271 270 270
285 287 288 286 285 286 286 285 285 285 285 285 285 286 287 288 289 287 285 284 283 282 281 280 280 279 280 279 279 279 280 281 282 282 279 279 278 277 276 275 274 272 270
284 284 285 285 285 285 285 284 285 285 285 285 285 286 286 287 288 287 284 282 281 280 280 280 279 279 281 284 279 278 278 279 282 285 285 284 284 283 279 273 267 264 263
284 284 285 286 285 285 285 285 285 286 285 285 284 286 286 285 288 287 283 281 280 279 279 279 281 279 283 285 280 278 277 278 277 277 277 281 282 279 281 273 270 265 262
284 285 284 285 285 285 285 285 285 285 285 285 284 284 284 285 286 286 285 281 281 280 280 280 280 285 285 285 286 279 279 277 278 276 273 271 270 271 271 272 271 269 263
285 285 284 284 285 285 285 285 285 285 284 283 281 280 281 282 285 288 286 284 284 281 280 280 280 285 286 286 285 285 285 284 275 273 273 273 272 271 271 270 270 269 270
285 284 284 285 285 286 286 285 285 285 283 281 280 278 278 279 281 288 288 287 286 281 281 282 284 285 286 285 286 286 282 277 275 276 278 277 274 274 270 266 266 266 265
285 284 285 285 285 285 285 285 284 282 281 279 279 278 277 277 276 277 279 281 284 284 283 281 283 284 284 282 278 282 278 276 276 276 277 275 268 265 266 266 263 263 261
284 283 283 283 283 281 281 281 281 279 282 280 279 279 277 275 277 280 279 276 277 279 271 270 270 270 270 272 270 271 272 270 274 276 276 273 271 268 268 266 265 264 262
281 281 280 280 280 280 280 279 285 286 286 286 284 281 279 283 284 285 285 284 284 284 274 273 276 273 274 273 271 272 269 275 277 277 273 273 272 269 269 267 267 265 264
278 277 277 277 277 277 276 277 277 277 284 285 286 287 285 285 286 287 287 286 286 285 274 264 266 267 270 270 270 270 272 270 270 272 272 271 271 271 270 268 266 266 264
276 275 277 276 276 276 275 274 274 272 272 273 280 283 285 286 286 285 285 283 272 280 268 272 274 272 274 275 275 274 276 277 274 275 273 273 272 271 270 268 268 266 265
276 275 275 274 273 273 273 272 272 271 270 270 270 277 274 285 286 286 286 271 269 269 278 280 280 280 280 281 281 281 280 279 278 277 275 274 273 272 270 269 268 266 265
273 274 273 272 270 270 270 270 268 268 268 268 268 268 266 268 268 267 267 267 269 275 271 281 281 281 281 280 279 279 279 279 279 278 278 277 272 271 270 269 267 265 263
271 269 271 269 269 268 268 268 267 266 266 264 265 266 276 267 264 263 263 264 276 277 277 276 275 273 272 268 266 268 270 272 273 274 272 269 271 268 268 267 266 264 263
268 266 267 268 266 267 266 265 265 265 264 265 264 266 276 265 267 271 271 271 271 268 267 264 263 262 262 264 265 265 265 266 267 266 266 266 265 265 265 263 262 261 261
269 268 267 265 270 269 267 265 266 266 265 264 265 266 266 265 265 264 263 261 260 260 260 259 259 260 263 261 259 258 261 262 263 263 263 264 262 260 259 260 259 259 259
268 268 268 265 266 267 267 265 266 265 266 265 265 264 263 261 260 258 257 257 257 258 258 258 259 260 260 260 260 258 258 259 261 261 261 261 260 258 256 256 257 258 258
268 267 266 266 265 266 266 265 265 264 263 262 260 259 257 257 257 256 256 256 257 258 259 260 259 258 258 258 258 257 258 259 256 259 256 256 256 256 255 256 256 256 257
266 266 265 266 265 264 264 263 260 260 259 258 257 255 256 256 256 256 257 258 257 258 259 258 258 258 257 255 254 260 263 264 262 257 252 251 252 253 255 253 254 256 256
Wind_Speed
21 21 22 20 16 14 16 17 17 18 17 21 21 21 20 18 18 14 14 15 16 13 11 11 7 6 5 4 4 3 3 3 4 1 2 2 4 4 3 2 3 4 4
22 22 23 21 18 18 18 19 18 19 19 21 21 20 20 20 18 18 17 15 17 15 12 10 9 7 7 6 4 5 4 3 4 3 1 1 3 4 3 3 4 4 4
24 23 21 20 19 18 17 18 19 18 16 18 19 21 20 17 16 18 16 15 13 14 12 10 10 10 7 4 5 5 4 3 3 3 2 1 2 2 3 4 4 4 3
3 12 18 18 16 18 18 18 17 17 17 15 17 20 19 19 16 15 15 15 13 9 8 10 11 10 9 9 6 6 5 4 3 3 3 3 4 4 3 3 4 3 3
7 10 13 17 19 19 19 19 18 16 14 14 18 16 17 16 13 18 14 12 11 10 8 8 8 8 11 9 6 6 6 4 4 3 3 2 3 3 3 3 4 3 3
9 14 15 18 19 19 19 19 20 17 14 13 15 19 19 12 24 21 16 11 11 11 11 7 6 7 8 12 11 13 10 6 5 4 3 4 6 4 2 4 2 1 3
5 12 15 16 18 17 18 19 17 19 17 16 14 16 16 16 24 23 20 10 11 9 9 8 6 4 7 6 10 11 10 13 9 5 6 7 4 5 4 3 4 3 4
8 9 12 16 17 16 17 17 16 16 17 16 14 14 15 14 24 23 18 10 8 7 7 8 7 7 7 7 6 5 6 6 7 6 7 7 6 5 6 5 5 3 2
11 10 10 15 17 18 16 17 15 17 16 14 13 14 15 14 23 22 14 9 8 7 6 6 6 7 10 13 6 7 6 7 9 16 16 15 12 12 8 4 2 2 3
11 11 10 12 15 17 16 17 12 14 14 13 13 11 15 14 20 19 14 7 7 5 5 5 9 7 11 14 8 6 7 7 5 5 4 8 9 9 14 7 4 4 3
11 12 12 13 15 15 15 14 14 15 15 14 13 9 11 11 13 19 17 7 7 6 5 4 5 13 13 14 14 8 9 4 8 5 4 3 2 5 4 6 7 6 4
12 14 14 13 11 12 17 14 14 14 15 12 11 8 5 6 11 16 16 11 11 6 6 5 5 13 14 14 11 13 16 12 4 4 4 6 7 8 8 8 8 8 8
14 14 14 14 12 13 15 14 12 11 10 8 8 7 5 3 3 13 14 12 12 4 2 6 10 11 13 11 15 14 10 4 4 5 8 9 9 8 5 3 2 3 3
13 13 12 13 13 12 9 8 9 8 7 6 6 6 4 3 2 1 1 3 8 6 6 4 6 8 9 7 5 10 4 4 6 7 8 7 1 2 4 5 4 4 3
12 11 11 10 10 9 7 5 6 3 5 7 4 5 6 3 6 9 8 4 4 4 4 2 1 1 2 3 3 3 3 3 5 6 6 5 6 4 6 5 4 4 7
8 6 5 6 6 6 7 6 10 8 8 4 9 6 1 1 7 12 13 12 12 11 2 3 5 4 6 4 4 5 3 6 7 7 6 7 8 7 7 6 6 7 9
6 4 4 5 4 4 4 4 5 5 8 5 6 4 6 4 4 5 10 12 10 10 3 1 1 2 4 4 4 4 5 4 5 6 7 8 8 8 8 7 7 8 9
6 6 5 4 4 4 4 4 4 3 2 2 3 2 5 7 8 7 6 4 1 6 2 2 3 4 4 5 6 6 7 7 7 8 9 9 8 8 7 8 8 9 9
4 3 4 3 3 4 3 3 3 3 2 2 2 3 3 5 6 7 9 3 3 2 2 6 6 6 6 6 6 6 7 6 7 7 7 7 7 7 8 8 8 10 10
2 4 3 3 3 3 2 3 3 3 3 2 1 2 1 4 3 3 3 2 1 2 2 4 4 4 3 5 5 6 6 6 6 6 6 6 4 5 7 8 7 7 8
3 3 5 3 3 3 3 3 3 3 3 2 1 1 4 4 2 1 2 2 3 4 4 4 4 5 5 3 2 2 4 5 6 6 5 4 4 6 6 6 5 6 6
3 3 3 3 3 3 3 3 4 4 3 4 2 4 12 4 4 5 6 6 6 4 3 3 3 2 2 3 4 4 5 6 5 6 7 7 6 4 4 4 4 5 5
4 4 4 3 4 5 5 4 5 4 4 4 4 5 6 6 6 5 4 3 3 4 3 3 3 3 2 3 3 2 3 5 6 5 7 7 5 3 2 4 4 5 5
5 5 5 4 4 5 5 5 5 6 6 7 7 6 6 5 4 4 3 3 2 2 2 2 2 5 5 5 4 3 3 3 3 4 6 5 4 2 1 2 3 6 6
5 5 5 5 5 6 6 7 7 7 7 6 5 4 4 3 4 3 2 2 1 1 2 4 4 6 7 8 8 8 7 6 4 4 2 3 3 4 3 3 3 3 5
5 6 6 6 7 7 7 7 6 5 5 4 4 3 2 2 1 1 1 3 3 3 5 4 5 8 8 5 6 8 7 8 7 7 3 2 3 3 3 4 6 5 6
Wind_Direction
251 242 235 233 226 233 190 178 166 156 165 158 157 153 152 155 151 149 150 150 143 144 150 146 141 133 138 137 114 115 113 116 113 210 102 141 158 179 228 220 224 232 256
249 233 223 220 217 225 188 170 156 161 166 160 156 154 153 154 152 146 154 155 148 148 145 145 141 144 124 137 144 120 133 105 125 130 170 142 190 223 217 226 235 228 235
246 221 205 199 199 197 151 144 149 150 157 155 154 154 150 152 157 145 147 144 149 148 149 147 148 138 147 150 142 135 127 103 106 117 146 213 226 239 256 248 234 236 232
212 178 179 190 172 140 136 139 139 143 146 156 156 152 146 146 143 132 139 142 139 140 150 143 150 160 162 155 139 142 132 138 121 141 183 218 221 231 207 228 248 226 231
148 147 138 127 128 128 132 130 130 135 144 152 140 136 134 134 134 136 138 135 135 138 137 142 153 153 153 145 147 153 151 147 161 175 196 208 220 231 208 216 223 247 246
122 121 124 123 124 128 132 133 131 132 130 140 141 139 136 132 139 136 134 138 144 139 151 146 147 137 148 163 163 172 173 165 175 176 171 219 235 217 200 200 187 198 298
79 113 121 122 121 128 130 131 140 129 134 131 129 132 133 135 138 137 134 139 134 153 150 144 136 144 154 164 179 183 194 203 197 180 217 211 227 198 190 192 202 195 224
48 86 110 111 114 120 122 124 131 129 131 126 128 124 125 128 136 132 130 130 133 147 147 151 156 167 178 167 168 190 212 214 225 226 213 224 216 208 196 195 196 213 305
67 71 94 113 115 116 119 122 122 121 120 120 116 124 123 128 133 136 129 126 145 146 150 158 169 172 188 186 174 198 216 231 234 238 243 248 239 219 197 127 207 120 280
79 82 89 102 108 111 116 115 113 113 113 113 108 120 120 124 140 141 141 151 141 150 156 166 182 183 194 201 191 189 218 228 200 224 246 251 216 212 204 193 165 194 175
75 81 84 92 99 100 103 101 109 111 108 108 108 105 113 127 149 160 159 151 158 162 164 183 201 205 210 215 213 195 219 177 222 219 215 212 180 192 205 194 192 186 176
76 83 83 83 86 95 99 103 103 106 104 106 107 98 109 141 155 168 166 167 169 160 188 192 197 212 220 224 227 230 233 236 186 211 208 219 218 218 219 208 200 206 217
83 84 84 85 91 98 101 101 98 99 111 118 124 129 127 130 150 175 178 176 186 186 156 196 209 219 222 226 231 232 235 213 194 211 233 240 222 226 197 171 171 200 212
74 77 83 88 85 80 82 95 107 110 110 119 129 137 135 142 149 129 158 181 207 201 202 218 221 221 216 207 223 237 219 204 206 231 244 250 187 174 203 185 180 182 212
65 66 70 73 81 83 70 91 106 61 140 152 156 145 145 183 213 192 182 187 190 193 108 63 73 251 251 246 254 231 230 219 231 240 243 240 233 213 225 188 199 185 218
81 75 76 91 88 89 101 84 58 95 110 95 151 150 196 183 174 194 204 211 213 205 130 185 223 217 234 244 239 254 210 232 244 244 241 248 243 229 233 209 214 216 233
82 65 71 73 75 91 73 97 113 20 60 68 93 136 147 155 134 169 201 207 204 185 189 204 236 193 246 243 242 227 248 222 205 221 234 238 240 242 233 232 222 229 240
113 114 118 128 132 135 147 143 127 127 114 339 325 200 214 204 192 186 186 156 108 208 147 185 256 248 240 236 230 231 238 237 223 229 229 233 233 240 244 238 235 233 238
126 132 132 126 114 115 104 92 97 103 112 126 10 25 345 232 219 215 202 146 165 193 230 266 272 267 255 260 246 248 246 239 234 233 234 237 234 236 248 247 241 234 235
98 126 120 113 115 98 94 119 115 131 136 127 88 252 30 45 38 1 358 22 336 266 261 278 283 282 310 345 342 336 323 309 299 294 293 290 252 246 253 255 239 234 228
126 117 132 98 126 131 139 131 122 101 97 101 234 247 125 100 111 75 14 14 15 9 0 0 0 359 5 342 322 307 297 303 308 312 319 313 293 272 255 256 251 239 245
121 121 101 116 117 101 100 101 94 90 82 86 44 35 70 71 67 56 46 35 31 27 9 359 339 360 335 318 344 341 335 329 331 328 319 307 284 263 256 246 247 244 238
104 98 79 70 77 87 70 65 80 91 93 81 74 65 53 59 58 51 48 23 15 8 349 352 335 293 313 359 11 360 335 325 323 317 311 304 279 250 210 245 244 247 239
103 102 103 93 84 89 93 92 87 80 81 72 68 64 61 57 59 47 30 6 350 336 334 283 287 13 4 4 354 343 328 305 306 310 318 306 294 277 228 238 235 250 256
109 116 113 119 112 104 94 81 76 69 68 69 68 67 57 53 51 33 329 298 324 321 348 6 12 6 11 4 355 341 322 322 318 318 319 324 299 275 251 243 243 252 257
93 89 91 88 84 82 85 87 81 78 83 71 66 61 82 101 136 147 343 19 12 5 8 359 359 5 358 338 319 318 328 327 290 243 214 218 256 269 258 250 259 261 261